Overview Statistics Trail Chart Weather Telemetry Raw packets
 

This is the latest recevied weather packets stored in our database for station/object DP0GVN-13. If no packets are shown the sender has not sent any weather packets the latest 10 day(s).

<< 3 4 5 6 7 8 9 >>
Time Temp. Humidity Pressure Rain* Wind** Luminosity Snow
1777957212 -15.56° C 84% 968.4 hPa - - 0 W/m² -
1777955413 -15.56° C 85% 968 hPa - - 0 W/m² -
1777953612 -15.56° C 84% 968.4 hPa - - 0 W/m² -
1777951812 -15.56° C 84% 968.4 hPa - - 0 W/m² -
1777950012 -15.56° C 84% 968.5 hPa - - 0 W/m² -
1777948212 -15.56° C 84% 968.5 hPa - - 0 W/m² -
1777946412 -15.56° C 85% 968.5 hPa - - 0 W/m² -
1777944613 -15.56° C 83% 968.6 hPa - - 0 W/m² -
1777942812 -16.67° C 83% 968.9 hPa - - 0 W/m² -
1777941012 -16.67° C 84% 969.3 hPa - - 0 W/m² -
1777939212 -17.78° C 83% 969.2 hPa - - 0 W/m² -
1777937412 -17.78° C 83% 969.4 hPa - - 0 W/m² -
1777935612 -17.78° C 82% 970.2 hPa - - 0 W/m² -
1777933812 -18.89° C 82% 971 hPa - - 0 W/m² -
1777932012 -18.89° C 82% 971.3 hPa - - 0 W/m² -
1777930212 -18.89° C 81% 972.8 hPa - - 0 W/m² -
1777928414 -20° C 81% 973.7 hPa - - 0 W/m² -
1777926612 -20° C 81% 975 hPa - - 0 W/m² -
1777924812 -20.56° C 81% 975.8 hPa - - 0 W/m² -
1777923012 -20.56° C 81% 976.3 hPa - - 0 W/m² -
1777921212 -20.56° C 81% 977.9 hPa - - 0 W/m² -
1777919412 -20° C 82% 978.8 hPa - - 0 W/m² -
1777917612 -18.89° C 82% 979.5 hPa - - 0 W/m² -
1777915812 -17.78° C 83% 980.6 hPa - - 0 W/m² -
1777914012 -17.78° C 82% 981.8 hPa - - 0 W/m² -

* Rain since midnight (hover to see other rain measurements)
** Current wind speed in m/s (hover to see current wind gust speed)